Printer-friendly version

IAU Minor Planet Center

Minor Planet Center

(160326) 2003 NF7

Orbital Elements

The following orbital elements are taken from MPO124282
(160326) 2003 NF7
Epoch 2007 Oct. 27.0 TT = JDT 2454400.5                 MPC
M   7.22358              (2000.0)            P               Q
n   0.25807683     Peri.   24.97104     +0.98622088     +0.14910581
a   2.4432620      Node   326.21022     -0.16498079     +0.85440721
e   0.2399733      Incl.    7.40368     -0.01223602     +0.49775072
P   3.82           H   16.0           G   0.15           U   2
From 113 observations at 3 oppositions, 2003-2007, mean residual 0".51.
An explanation of the orbital elements is available.

These orbital elements are also available in forms suitable for loading into a number of popular planetarium-type software programs.


Ephemeris

The following ephemeris is at intervals of five days. A daily ephemeris covering the same time interval is also available.

Personalized ephemerides for this (and other) objects may be generated using the Minor Planet & Comet Ephemeris Service.

Date    TT    R. A. (2000) Decl.     Delta      r     Elong.  Phase     V
2009 10 26    12 26.22   -06 23.4    3.896    3.017    24.2     7.8    21.9

2010 03 05    14 16.88   -22 17.7    2.215    2.893   124.4    16.4    20.9
2010 03 10    14 15.79   -22 31.7    2.151    2.885   129.4    15.4    20.8
2010 03 15    14 14.04   -22 42.5    2.091    2.878   134.6    14.2    20.7
2010 03 20    14 11.63   -22 49.6    2.036    2.870   139.9    12.9    20.6
2010 03 25    14 08.60   -22 52.8    1.986    2.862   145.2    11.5    20.5
2010 03 30    14 04.99   -22 52.0    1.942    2.854   150.6     9.9    20.4
2010 04 04    14 00.86   -22 47.0    1.904    2.846   155.9     8.2    20.2
2010 04 09    13 56.31   -22 37.7    1.872    2.838   161.1     6.6    20.1
2010 04 14    13 51.43   -22 24.3    1.847    2.829   165.7     5.0    20.0
2010 04 19    13 46.37   -22 06.9    1.829    2.821   168.9     3.9    19.9
2010 04 24    13 41.25   -21 46.1    1.818    2.812   169.3     3.8    19.9
2010 04 29    13 36.21   -21 22.5    1.814    2.803   166.6     4.8    19.9
2010 05 04    13 31.39   -20 56.9    1.817    2.794   162.2     6.3    20.0
2010 05 09    13 26.90   -20 30.0    1.826    2.784   157.1     8.1    20.1
2010 05 14    13 22.85   -20 02.7    1.843    2.775   151.8     9.9    20.2
2010 05 19    13 19.34   -19 35.9    1.865    2.765   146.4    11.7    20.3
2010 05 24    13 16.42   -19 10.4    1.893    2.755   141.1    13.3    20.4
2010 05 29    13 14.15   -18 46.8    1.925    2.745   135.9    14.9    20.4
2010 06 03    13 12.53   -18 25.7    1.962    2.735   130.8    16.3    20.5
2010 06 08    13 11.58   -18 07.4    2.003    2.725   125.8    17.6    20.6
2010 06 13    13 11.31   -17 52.4    2.047    2.714   121.0    18.7    20.7
2010 06 18    13 11.68   -17 40.8    2.095    2.703   116.4    19.7    20.8
2010 06 23    13 12.70   -17 32.8    2.144    2.693   111.8    20.5    20.8
2010 06 28    13 14.31   -17 28.2    2.195    2.682   107.5    21.2    20.9
2010 07 03    13 16.49   -17 27.1    2.247    2.671   103.3    21.7    20.9

Valid HTML 4.01!